TimeCST,TemperatureF,Dew PointF,Humidity,Sea Level PressureIn,VisibilityMPH,Wind Direction,Wind SpeedMPH,Gust SpeedMPH,PrecipitationIn,Events,Conditions,WindDirDegrees,DateUTC
12:52 AM,25.0,21.9,88,29.85,2.5,WNW,6.9,-,0.00,Snow,Light Snow,290,2013-02-22 06:52:00
1:01 AM,24.8,21.2,86,29.82,2.5,WNW,8.1,-,0.00,Snow,Light Snow,290,2013-02-22 07:01:00
1:52 AM,25.0,21.9,88,29.86,3.0,WNW,6.9,-,0.00,Snow,Light Snow,290,2013-02-22 07:52:00
2:03 AM,24.8,21.2,86,29.83,2.5,WNW,8.1,-,0.00,Snow,Light Snow,290,2013-02-22 08:03:00
2:12 AM,24.8,21.2,86,29.83,4.0,WNW,11.5,-,0.00,,Overcast,290,2013-02-22 08:12:00
2:52 AM,24.1,19.9,84,29.86,7.0,WNW,12.7,-,0.00,,Overcast,290,2013-02-22 08:52:00
3:52 AM,24.1,19.0,81,29.88,8.0,WNW,12.7,-,N/A,,Overcast,290,2013-02-22 09:52:00
4:48 AM,23.0,17.6,80,29.88,7.0,West,11.5,-,N/A,,Mostly Cloudy,280,2013-02-22 10:48:00
4:52 AM,23.0,18.0,81,29.92,7.0,West,13.8,-,N/A,,Scattered Clouds,280,2013-02-22 10:52:00
5:05 AM,23.0,17.6,80,29.89,7.0,WNW,15.0,-,N/A,,Mostly Cloudy,290,2013-02-22 11:05:00
5:26 AM,23.0,17.6,80,29.90,6.0,WNW,13.8,-,N/A,,Haze,290,2013-02-22 11:26:00
6:33 AM,21.2,15.8,80,29.91,6.0,WNW,11.5,-,N/A,,Haze,290,2013-02-22 12:33:00
6:52 AM,19.0,15.1,85,29.96,6.0,WNW,13.8,-,N/A,,Clear,300,2013-02-22 12:52:00
7:18 AM,19.4,15.8,86,29.94,4.0,WNW,15.0,-,N/A,,Haze,290,2013-02-22 13:18:00
7:52 AM,19.9,15.1,81,30.00,4.0,WNW,17.3,-,N/A,,Haze,290,2013-02-22 13:52:00
8:52 AM,19.9,15.1,81,30.01,5.0,NW,15.0,-,N/A,,Haze,310,2013-02-22 14:52:00
9:12 AM,19.4,15.8,86,29.98,5.0,NW,16.1,21.9,N/A,,Haze,310,2013-02-22 15:12:00
9:52 AM,21.9,15.1,75,30.04,6.0,WNW,13.8,-,N/A,,Haze,300,2013-02-22 15:52:00
10:52 AM,23.0,16.0,74,30.07,7.0,WNW,11.5,-,N/A,,Scattered Clouds,290,2013-02-22 16:52:00
11:52 AM,24.1,16.0,71,30.09,7.0,WNW,13.8,-,N/A,,Clear,290,2013-02-22 17:52:00
12:52 PM,26.1,17.1,69,30.09,8.0,West,12.7,-,N/A,,Clear,280,2013-02-22 18:52:00
1:52 PM,27.0,17.1,66,30.08,9.0,WNW,13.8,-,N/A,,Clear,290,2013-02-22 19:52:00
2:52 PM,28.0,17.1,63,30.07,8.0,West,11.5,-,N/A,,Clear,280,2013-02-22 20:52:00
3:52 PM,27.0,17.1,66,30.07,8.0,WNW,11.5,-,N/A,,Clear,300,2013-02-22 21:52:00
4:52 PM,27.0,16.0,63,30.07,8.0,WNW,8.1,-,N/A,,Clear,300,2013-02-22 22:52:00
5:52 PM,24.1,15.1,69,30.09,7.0,West,5.8,-,N/A,,Clear,280,2013-02-22 23:52:00
6:52 PM,19.0,12.0,74,30.12,8.0,NW,4.6,-,N/A,,Clear,310,2013-02-23 00:52:00
7:52 PM,18.0,12.0,78,30.12,7.0,Calm,Calm,-,N/A,,Clear,0,2013-02-23 01:52:00
8:52 PM,12.0,8.1,84,30.13,6.0,Calm,Calm,-,N/A,,Clear,0,2013-02-23 02:52:00
9:52 PM,12.9,10.0,88,30.13,4.0,NNW,3.5,-,N/A,,Clear,330,2013-02-23 03:52:00
10:52 PM,9.0,6.1,88,30.13,3.0,NW,3.5,-,N/A,,Clear,310,2013-02-23 04:52:00
11:05 PM,6.8,3.2,85,30.08,2.0,Calm,Calm,-,N/A,,Clear,0,2013-02-23 05:05:00
11:35 PM,5.0,1.4,85,30.09,0.8,Calm,Calm,-,N/A,,Clear,0,2013-02-23 05:35:00
11:49 PM,8.6,6.8,92,30.09,2.0,Calm,Calm,-,N/A,,Clear,0,2013-02-23 05:49:00
11:52 PM,8.1,6.1,92,30.13,2.5,Calm,Calm,-,N/A,,Clear,0,2013-02-23 05:52:00